This demonstration page uses our WeatherBlox Daily Observations layout. Learn more.

Left ArrowRight Arrow

39.01783, -85.05884

Hourly Observations for November 15, 2020

Temp ( °F °C ) Dew Point ( °F °C ) Humidity (%) Winds ( mph kmh ) Pressure ( in mb ) Visibility ( mi km ) Precip ( " mm )
12:52 am 00:52 Mostly Cloudy 55 12.8 36 2.2 49 49 SSE 13 20 29.77 1008 10 16.0934 0 0
1:52 am 01:52 Partly Cloudy 57 13.9 37 2.8 47 47 S 15 24 29.72 1006 10 16.0934 0 0
2:52 am 02:52 Mostly Cloudy 60 15.6 39 3.9 46 46 S 21 33 29.64 1004 10 16.0934 0 0
3:52 am 03:52 Cloudy 62 16.7 41 5 46 46 S 23 37 29.62 1003 10 16.0934 0 0
4:26 am 04:26 Cloudy with Nearby Thunderstorms 62 16.7 42 5.6 48 48 S 20 31 29.62 1003 10 16.0934 0.001 0.001
4:31 am 04:31 Cloudy with Light Thunderstorms 62 16.7 43 6.1 50 50 SSW 17 28 29.64 1004 9 14.48406 0.001 0.001
4:52 am 04:52 Cloudy with Thunderstorms 56 13.3 48 8.9 75 75 S 28 44 29.6 1002 4 6.43736 0.07 1.778
5:09 am 05:09 Cloudy with Light Rain 55 12.8 49 9.4 80 80 S 25 41 29.61 1003 8 12.87472 0.04 1.016
5:52 am 05:52 Cloudy with Light Rain 54 12.2 50 10 87 87 S 23 37 29.55 1001 10 16.0934 0.12 3.048
6:29 am 06:29 Cloudy with Light Rain 55 12.8 50 10 83 83 SW 12 19 29.61 1003 10 16.0934 0.001 0.001
6:52 am 06:52 Cloudy with Rain 55 12.8 51 10.6 87 87 SW 8 13 29.62 1003 4 6.43736 0.01 0.254
7:34 am 07:34 Cloudy with Light Rain 55 12.8 52 11.1 90 90 SW 12 19 29.64 1004 7 11.26538 0.09 2.286
7:52 am 07:52 Cloudy with Light Rain 55 12.8 52 11.1 90 90 S 12 19 29.62 1003 5 8.0467 0.11 2.794
8:52 am 08:52 Cloudy with Light Rain 54 12.2 51 10.6 90 90 S 16 26 29.58 1002 10 16.0934 0.03 0.762
9:34 am 09:34 Cloudy 56 13.3 52 11.1 87 87 SSW 17 28 29.63 1003 10 16.0934 0.001 0.001
9:52 am 09:52 Cloudy 57 13.9 51 10.6 81 81 SW 16 26 29.62 1003 10 16.0934 0.001 0.001
10:52 am 10:52 Cloudy with Rain 56 13.3 47 8.3 72 72 WSW 33 54 29.65 1004 5 8.0467 0.001 0.001
11:52 am 11:52 Partly Cloudy 53 11.7 36 2.2 52 52 W 31 50 29.73 1007 10 16.0934 0.01 0.254
12:52 pm 12:52 Partly Cloudy 54 12.2 37 2.8 53 53 W 24 39 29.77 1008 10 16.0934 0 0
1:52 pm 13:52 Mostly Cloudy 53 11.7 35 1.7 51 51 WSW 20 31 29.81 1010 10 16.0934 0 0
2:52 pm 14:52 Mostly Cloudy 51 10.6 37 2.8 59 59 W 18 30 29.86 1011 10 16.0934 0.001 0.001
3:52 pm 15:52 Mostly Cloudy 50 10 33 0.6 52 52 W 16 26 29.9 1012 10 16.0934 0.001 0.001
4:52 pm 16:52 Mostly Cloudy 49 9.4 32 0 52 52 WSW 9 15 29.92 1013 10 16.0934 0 0
5:52 pm 17:52 Mostly Cloudy 48 8.9 30 -1.1 50 50 WSW 12 19 29.96 1015 10 16.0934 0 0
6:52 pm 18:52 Mostly Cloudy 48 8.9 30 -1.1 50 50 W 15 24 29.99 1016 10 16.0934 0 0
7:52 pm 19:52 Partly Cloudy 47 8.3 31 -0.6 54 54 WSW 13 20 30.02 1017 10 16.0934 0 0
8:52 pm 20:52 Mostly Cloudy 47 8.3 30 -1.1 52 52 W 20 31 30.05 1018 10 16.0934 0 0
9:52 pm 21:52 Partly Cloudy 46 7.8 28 -2.2 50 50 WSW 16 26 30.06 1018 10 16.0934 0 0
10:52 pm 22:52 Mostly Clear 45 7.2 28 -2.2 52 52 WSW 10 17 30.06 1018 10 16.0934 0 0
11:52 pm 23:52 Clear 43 6.1 29 -1.7 58 58 WSW 9 15 30.08 1019 10 16.0934 0 0

Powered by AerisWeather